Weather History for SBGL - November, 2013

Change the Weather History Date:

Thursday, November 7, 2013

  Actual Average Record
Temperature  
Mean Temperature 68 °F -  
Max Temperature 69 °F 82 °F 94 °F (2014)
Min Temperature 66 °F 69 °F 62 °F (2002)
Cooling Degree Days 2    
Growing Degree Days 18 (Base 50)    
Moisture  
Dew Point 64 °F    
Average Humidity 89    
Maximum Humidity 100    
Minimum Humidity 83    
Precipitation  
Precipitation 0.55 in - - ()
Sea Level Pressure  
Sea Level Pressure 30.08 in    
Wind  
Wind Speed 3 mph ()    
Max Wind Speed 7 mph    
Max Gust Speed -    
Visibility 2.8 miles    
Events Rain    
Averages and records for this station are not official NWS values.
T = Trace of Precipitation, MM = Missing Value Source: Averaged Metar Reports

Daily Weather History Graph

Daily Weather History Graph

Search for Another Location

Airport or City:

Trip Planner

Search our weather history database for the weather conditions in past years. The results will help you decide how hot, cold, wet, or windy it might be!

Date:

Astronomy

Nov. 07, 2013 Rise Set
Actual Time 6:04 AM BRST 7:09 PM BRST
Civil Twilight 5:40 AM BRST 7:32 PM BRST
Nautical Twilight 5:12 AM BRST 8:01 PM BRST
Astronomical Twilight 4:43 AM BRST 8:29 PM BRST
Moon 9:49 AM BRST (11/7) 11:22 PM BRST (11/7)
Length of Visible Light 13h 52m
Length of Day
13h 04m
Waxing Crescent, 21% of the Moon is Illuminated
Nov 7
Waxing Crescent
Nov 10
First Quarter
Nov 17
Full
Nov 25
Last Quarter
Dec 2
New

Hourly Weather History & Observations

Time (BRST) Temp. Dew Point Humidity Pressure Visibility Wind Dir Wind Speed Gust Speed Precip Events Conditions
12:00 AM 68.0 °F 66.2 °F 94% 30.12 in 2.2 mi ESE 2.3 mph - N/A Rain Light Rain
1:00 AM 67 °F 65 °F 92% 30.11 in 2 mi SE 2.3 mph - - Rain Light Rain
1:00 AM 66.2 °F 66.2 °F 100% 30.09 in 2.2 mi SE 2.3 mph - N/A Rain Light Rain
2:00 AM 66.2 °F 64.4 °F 94% 30.06 in 2.5 mi Calm Calm - N/A Rain Light Rain
3:00 AM 66.2 °F 64.4 °F 94% 30.06 in 1.9 mi NE 2.3 mph - N/A Rain Light Rain
4:00 AM 67 °F 65 °F 91% 30.08 in 4 mi East 2.3 mph - - Rain Light Rain
4:00 AM 66.2 °F 64.4 °F 94% 30.06 in 3.7 mi East 2.3 mph - N/A Rain Light Rain
5:00 AM 68.0 °F 66.2 °F 94% 30.06 in 2.5 mi NNE 3.5 mph - N/A Rain Light Rain
6:00 AM 68.0 °F 64.4 °F 88% 30.06 in 2.2 mi NNE 4.6 mph - N/A Rain Light Rain
7:00 AM 68 °F 65 °F 87% 30.10 in 2 mi South 4.6 mph - - Rain Light Rain
7:00 AM 68.0 °F 64.4 °F 88% 30.09 in 1.9 mi South 4.6 mph - N/A Rain Light Rain
8:00 AM 66.2 °F 64.4 °F 94% 30.09 in 2.2 mi SSE 3.5 mph - N/A Rain Light Rain
9:00 AM 68.0 °F 64.4 °F 88% 30.12 in 1.2 mi South 4.6 mph - N/A Rain Light Rain
10:00 AM 68 °F 65 °F 87% 30.10 in 2 mi South 4.6 mph - - Rain Light Rain
10:00 AM 66.2 °F 62.6 °F 88% 30.12 in 2.5 mi NNE 5.8 mph - N/A Rain Light Rain
11:00 AM 68.0 °F 62.6 °F 83% 30.12 in 4.3 mi NNE 6.9 mph - N/A Rain Light Rain
11:35 AM 68.0 °F 62.6 °F 83% 30.12 in 1.9 mi Calm Calm - N/A Rain Light Rain
12:00 PM 68.0 °F 62.6 °F 83% 30.12 in 1.9 mi ESE 2.3 mph - N/A Rain Light Rain
1:00 PM 67 °F 64 °F 86% 30.12 in 2 mi SE 3.5 mph - - Rain Light Rain
1:00 PM 66.2 °F 64.4 °F 94% 30.09 in 1.9 mi SE 3.5 mph - N/A Rain Light Rain
2:00 PM 68.0 °F 64.4 °F 88% 30.09 in 1.9 mi SE 3.5 mph - N/A Rain Light Rain
3:00 PM 68.0 °F 64.4 °F 88% 30.06 in 2.2 mi ESE 4.6 mph - N/A Rain Light Rain
4:00 PM 69 °F 65 °F 83% 30.06 in 2 mi SSE 4.6 mph - - Rain Light Rain
4:00 PM 68.0 °F 64.4 °F 88% 30.04 in 2.2 mi SSE 4.6 mph - N/A Rain Light Rain
5:00 PM 69.8 °F 64.4 °F 83% 30.04 in 4.3 mi SE 3.5 mph - N/A   Overcast
6:00 PM 69.8 °F 64.4 °F 83% 30.04 in 6.2 mi ESE 2.3 mph - N/A   Overcast
7:00 PM 68 °F 64 °F 85% 30.06 in 2 mi SE 3.5 mph - - Rain Light Rain
7:00 PM 68.0 °F 64.4 °F 88% 30.04 in 2.5 mi SE 3.5 mph - N/A Rain Light Rain
8:00 PM 68.0 °F 66.2 °F 94% 30.04 in 4.3 mi ESE 4.6 mph - N/A Rain Light Rain
9:00 PM 68.0 °F 64.4 °F 88% 30.06 in 4.3 mi ESE 4.6 mph - N/A Rain Light Rain
10:00 PM 68 °F 65 °F 85% 30.06 in 4 mi East 4.6 mph - - Rain Light Rain
10:00 PM 68.0 °F 64.4 °F 88% 30.06 in 4.3 mi East 4.6 mph - N/A Rain Light Rain
11:00 PM 68.0 °F 64.4 °F 88% 30.06 in 5.0 mi SSW 2.3 mph - N/A   Overcast